Regional Weather Roundup
Issued by NWS Boston, MA

Home | Current Version | Previous Version | Text Only | Print | Product List | Glossary On
Versions: 1 2 3 4 5 6 7 8 9 10 11 12 13 14 15 16 17 18 19 20 21 22 23 24 25 26 27 28 29 30 31 32 33 34 35 36 37 38 39 40 41 42 43 44 45 46 47 48 49 50
000
ASUS41 KBOX 030410
RWRBOX

REGIONAL WEATHER ROUNDUP
NATIONAL WEATHER SERVICE TAUNTON MA
1100 PM EST MON MAR 02 2015

NOTE:  "FAIR" INDICATES FEW OR NO CLOUDS BELOW 12,000 FEET WITH NO
SIGNIFICANT WEATHER AND/OR OBSTRUCTIONS TO VISIBILITY.  THE FOLLOWING
OBSERVATION LOCATIONS DO NOT REPORT PRESENT WEATHER...PROVINCETOWN...
SMITHFIELD...BLOCK ISLAND...KEENE...AND OXFORD.

MAZALL-030500-
EASTERN MASSACHUSETTS

CITY           SKY/WX    TMP DP  RH WIND       PRES   REMARKS
BOSTON         MOCLDY    27  15  61 NW14      30.23R WCI  16
BEVERLY        FAIR      25   7  46 NW13      30.20R WCI  14
LAWRENCE       FAIR      24   5  44 NW15G22   30.22R WCI  11
BEDFORD        CLOUDY    25  14  63 NW9       30.22R WCI  15
BLUE HILL        N/A     23  10  57 NW13      30.17R WCI  11
NORWOOD        MOCLDY    26   9  48 W5        30.23R WCI  20
MARSHFIELD     MOCLDY    30  12  47 NW5       30.23R WCI  25
PLYMOUTH       FAIR      25  10  53 W6        30.22R WCI  18
TAUNTON        FAIR      26   9  48 W6        30.22R WCI  19
NEW BEDFORD    FAIR      24  10  55 W9        30.22R WCI  14
$$

MAZALL-030500-
CAPE COD AND THE ISLANDS

CITY           SKY/WX    TMP DP  RH WIND       PRES   REMARKS
FALMOUTH       CLOUDY    23  10  58 W7        30.22R WCI  15
HYANNIS        FAIR      26  10  50 W10       30.19R WCI  16
CHATHAM        MOCLDY    27  12  53 NW7       30.20R WCI  19
PROVINCETOWN   FAIR      28  18  64 NW23G32   30.20R WCI  14
NANTUCKET      FAIR      28  13  53 W15G24    30.21R WCI  16
MARTHAS VNYRD  FAIR      27   8  44 NW10      30.22R WCI  17
$$

MAZALL-030500-
CENTRAL AND WESTERN MASSACHUSETTS

CITY           SKY/WX    TMP DP  RH WIND       PRES   REMARKS
WORCESTER      FAIR      20   7  57 W13       30.17R WCI   7
FITCHBURG      CLOUDY    25  12  58 NW6       30.23R WCI  18
ORANGE         FAIR      23   7  50 NW15      30.22R WCI  10
SPRINGFIELD    FAIR      20   6  54 NW9       30.25R WCI  10
WESTFIELD      FAIR      24   7  48 NW13      30.27R WCI  12
NORTH ADAMS    CLOUDY    22   7  52 W18G26    30.25R WCI   7
PITTSFIELD     FAIR      18   7  62 NW14G22   30.21R WCI   4
$$

RIZALL-030500-
RHODE ISLAND

CITY           SKY/WX    TMP DP  RH WIND       PRES   REMARKS
PROVIDENCE     FAIR      25   9  50 W8        30.25R WCI  16
NEWPORT        FAIR      26  11  52 W7        30.24R WCI  18
BLOCK ISLAND   FAIR      28   9  43 NW12G20   30.26R WCI  18
SMITHFIELD     FAIR      23   5  46 W9        30.20R WCI  13
WESTERLY       FAIR      27   9  46 VRB5      30.28R WCI  22
$$

CTZALL-030500-
CONNECTICUT

CITY           SKY/WX    TMP DP  RH WIND       PRES   REMARKS
BRADLEY INTL   FAIR      26   7  44 NW10      30.29R WCI  16
HARTFORD       FAIR      26   8  46 NW8       30.32R WCI  18
BRIDGEPORT     FAIR      26  11  52 NW8       30.33R WCI  18
DANBURY        FAIR      24   6  46 CALM      30.32R
GROTON         FAIR      26   9  48 NW16      30.29R WCI  14
NEW HAVEN      FAIR      28   9  44 NW10      30.31R WCI  19
CHESTER        FAIR      27  10  50 NW7G16    30.29R WCI  19
MERIDEN        FAIR      27   8  44 NW8G18    30.31R WCI  19
WILLIMANTIC    FAIR      25   7  46 W10       30.27R WCI  15
OXFORD         FAIR      25   3  39 NW5       30.28R WCI  19
$$

MEZ002-015-021-024-NHZ003-005-008-011-012-014-VTZ005-008-030500-
NORTHERN NEW ENGLAND

CITY           SKY/WX    TMP DP  RH WIND       PRES   REMARKS
PORTLAND ME    FAIR      24   5  44 NW9G18    30.16R WCI  14
BANGOR ME      FAIR      16   0  49 NW21G37   30.09R WCI  -1
CONCORD NH     FAIR      22   4  46 NW15G24   30.18R WCI   9
MANCHESTER NH  FAIR      24   6  46 NW15G31   30.19R WCI  11
NASHUA NH      FAIR      24   7  48 NW22G31   30.22R WCI   9
PORTSMOUTH NH  PTCLDY    23   5  45 NW10G20   30.18R WCI  13
JAFFREY NH     FAIR      20   7  57 NW7G18    30.17R WCI  11
KEENE NH       FAIR      23  10  58 NW10G18   30.21R WCI  12
BURLINGTON VT  FAIR      15   2  56 N5        30.31R WCI   8
MT. WASHINGTON BLWGSNOW -11 -11 100 NW91G99     N/A  VSB 1/16WCI -53
$$

NYZ052-076-030500-
EASTERN NEW YORK

CITY           SKY/WX    TMP DP  RH WIND       PRES   REMARKS
ALBANY         FAIR      22   7  52 NW10      30.34R WCI  11
NEW YORK CITY  FAIR      29  11  47 NW15G22   30.36R WCI  18
$$

ANZALL-030500-
MARINE OBSERVATIONS

STATION/POSITION TIME  TEMP    WIND        PRES    VSBY  WAVE
                       AIR SEA DIR/SP/G                  HT/PER
                 (UTC) (F)     (DEG/KT/KT) (MB)    (MI)  (FT/S)
BOSTON BUOY      0350   29 36  320/ 23/ 27 1023.1R         4/ 4
BUZZARDS BAY     0300          300/ 21/ 23 1024.0R
NANTUCKET SOUND  0350   30 30  290/ 17/ 21 1022.9R         2/ 4
MASS BAY-STELLWA 0304   28 35  310/ 21/ 25   N/A    1 7/8  3/ 3
ISLE OF SHOALS   0400   26     320/ 23/ 32 1021.3R
S OF BLOCK IS    0308      37                N/A           6/ 5
$$

......................KEY.........................
  SKY/WX - SKY CONDITION/PRESENT WEATHER
  TMP    - TEMPERATURE IN FAHRENHEIT
  DWPT   - DEWPOINT IN FAHRENHEIT
  RH     - RELATIVE HUMIDITY IN PERCENT
  WIND   - DIRECTION AND SPEED IN MPH
  PRES   - MEAN SEA LEVEL PRESSURE IN INCHES OF HG
  WCI    - WIND CHILL INDEX
  VSB    - VISIBILITY IN MILES
  HX     - HEAT INDEX
  TC     - TEMPERATURE IN CELSIUS
  VRB    - VARIABLE WIND DIRECTION
  N/A    - NOT AVAILABLE


USA.gov is the U.S. government's official web portal to all federal, state and local government web resources and services.